Vorticity
1 17 59 36 20 8 15 9 13 13 6 8 6 5 14 14 10 4 11 5 18 29
-5 1 4 0 1 29 9 10 10 11 12 3 11 11 15 11 11 16 24 20 23 19
14 13 -5 2 14 4 16 15 4 -0 8 7 6 0 10 15 17 23 22 15 16 13
5 18 42 2 16 16 25 19 16 10 5 4 1 5 16 15 -1 15 19 20 14 7
10 5 -12 10 11 8 14 7 -11 7 8 16 18 8 3 3 4 -9 23 23 12 7
20 16 22 14 27 21 3 -3 23 6 1 4 9 3 2 3 -2 9 24 22 11 9
14 2 12 19 10 12 17 22 3 9 11 0 -6 4 6 -2 -1 27 19 15 12 10
9 11 7 12 15 19 20 13 16 18 -1 10 -5 16 -11 1 3 31 -6 9 16 7
13 11 19 5 8 12 17 23 18 27 7 23 27 19 -2 -3 21 12 1 12 11 12
23 15 20 9 12 9 10 10 30 18 14 -1 -22 2 6 7 27 8 10 5 15 17
9 8 10 6 10 4 38 0 30 19 5 -13 12 23 20 21 17 -2 9 1 4 9
10 6 23 18 23 36 -3 6 -9 24 26 18 18 16 26 7 -3 17 2 -3 7 12
21 18 25 5 17 5 -0 -11 -14 25 1 13 37 18 11 -5 10 9 8 13 0 11
22 6 10 21 19 16 15 14 5 8 15 19 -12 8 28 7 3 20 -3 11 4 7
Height
5617 5617 5621 5622 5624 5625 5627 5631 5635 5634 5632 5631 5633 5633 5634 5634 5631 5628 5627 5625 5624 5622
5607 5608 5611 5614 5616 5614 5616 5618 5623 5622 5621 5619 5621 5624 5624 5623 5620 5619 5617 5615 5614 5613
5594 5599 5601 5601 5600 5602 5605 5607 5610 5613 5609 5609 5611 5615 5614 5613 5613 5612 5610 5608 5606 5606
5586 5587 5588 5589 5592 5593 5596 5598 5597 5601 5596 5600 5602 5604 5605 5605 5604 5605 5602 5600 5599 5598
5575 5573 5576 5576 5579 5585 5587 5590 5590 5590 5590 5591 5593 5593 5593 5593 5598 5596 5594 5593 5592 5591
5568 5568 5569 5571 5574 5576 5577 5578 5581 5581 5580 5585 5584 5583 5582 5582 5588 5587 5585 5584 5584 5585
5559 5560 5562 5563 5564 5566 5567 5567 5566 5568 5572 5573 5576 5575 5573 5573 5577 5577 5577 5577 5577 5577
5550 5551 5552 5554 5554 5555 5557 5557 5556 5559 5562 5564 5565 5564 5564 5566 5566 5569 5570 5570 5570 5571
5539 5541 5541 5543 5545 5546 5547 5547 5547 5549 5551 5553 5553 5554 5555 5557 5559 5560 5562 5563 5563 5563
5528 5529 5531 5534 5536 5537 5538 5538 5537 5539 5540 5541 5541 5543 5545 5547 5551 5550 5554 5555 5555 5556
5519 5520 5523 5525 5527 5526 5527 5529 5527 5529 5531 5532 5531 5533 5535 5539 5543 5543 5546 5547 5548 5548
5511 5513 5515 5516 5517 5517 5518 5519 5518 5520 5522 5523 5523 5525 5527 5531 5535 5534 5537 5539 5539 5539
5504 5506 5506 5508 5509 5509 5511 5511 5512 5513 5514 5514 5515 5519 5520 5523 5525 5526 5528 5530 5530 5530
5497 5499 5501 5501 5502 5503 5503 5503 5504 5505 5506 5507 5509 5511 5513 5515 5516 5517 5519 5521 5521 5521